BMCB-19 Weather Reports


time (UTC)temp
F
wind
direction
speed
knots
gust
knots
rain 1hr
in
rain 24hr
in
rain mn
in
humidity
%
barometer
mb
20260505152012 50 0 0.0 0.0 0.00 0.05 0.03 98 1009.8
20260505151008 50 0 0.0 0.0 0.00 0.06 0.03 98 1009.8
20260505125008 51 0 0.0 0.0 0.00 0.17 0.03 98 1010.3
20260505124009 51 0 0.0 0.0 0.00 0.17 0.03 98 1010.3
20260505123008 51 0 0.0 0.0 0.00 0.17 0.03 98 1010.3
20260505122011 51 0 0.0 0.0 0.00 0.17 0.03 98 1010.3
20260505121007 51 0 0.0 0.0 0.00 0.17 0.03 98 1010.3
20260505120010 51 0 0.0 0.0 0.00 0.17 0.03 98 1010.4
20260505115007 51 0 0.0 0.0 0.00 0.17 0.03 98 1010.5
20260505114008 51 0 0.0 0.0 0.00 0.17 0.03 98 1010.5
20260505113008 51 0 0.0 0.0 0.00 0.17 0.03 98 1010.5
20260505112009 51 0 0.0 0.0 0.00 0.17 0.03 98 1010.6
20260505111008 51 0 0.0 0.0 0.00 0.17 0.03 98 1010.7
20260505101012 51 0 0.0 0.0 0.00 0.17 0.03 98 1011.0
20260505100008 51 0 0.0 0.0 0.00 0.17 0.03 98 1011.0
20260505094013 51 0 0.0 0.0 0.00 0.17 0.03 98 1011.0
20260505093008 51 0 0.0 0.0 0.01 0.17 0.03 98 1010.9
20260505091010 52 0 0.0 0.0 0.01 0.17 0.03 98 1010.8
20260505085010 51 0 0.0 0.0 0.01 0.17 0.03 98 1010.9
20260505083008 51 0 0.0 0.0 0.01 0.17 0.03 98 1011.0
20260505075012 51 0 0.0 0.0 0.00 0.16 0.02 98 1011.2
20260505073014 51 0 0.0 0.0 0.00 0.16 0.02 98 1011.1
20260505071014 51 0 0.0 0.0 0.00 0.16 0.02 98 1011.2
20260505065011 52 0 0.0 0.0 0.00 0.16 0.02 98 1011.2
20260505063011 52 0 0.0 0.0 0.00 0.16 0.02 98 1011.2
20260505062008 52 0 0.0 0.0 0.00 0.16 0.02 97 1011.3
20260505061010 52 0 0.0 0.0 0.00 0.16 0.02 97 1011.2
20260505053008 53 0 0.0 0.0 0.00 0.16 0.02 97 1011.2
20260505052009 53 0 0.0 0.0 0.00 0.16 0.02 97 1011.2
20260505051015 53 0 0.0 0.0 0.01 0.16 0.02 97 1011.1
20260505041009 53 0 0.0 0.0 0.02 0.16 0.02 97 1011.2
20260505040011 53 0 0.0 0.0 0.02 0.15 0.02 97 1011.2
20260505035011 53 0 0.0 0.0 0.01 0.14 0.01 97 1011.3
20260505034011 53 0 0.0 0.0 0.00 0.13 0.00 97 1011.4
20260505033009 53 0 0.0 0.0 0.00 0.13 0.00 97 1011.4
20260505032011 53 0 0.0 0.0 0.00 0.13 0.00 97 1011.5
20260505030009 53 0 0.0 0.0 0.00 0.13 0.00 97 1011.7
20260505023012 53 0 0.0 0.0 0.00 0.13 0.00 96 1011.8
20260505022009 53 0 0.0 0.0 0.00 0.13 0.00 96 1011.8
20260505021009 53 0 0.0 0.0 0.00 0.13 0.00 96 1011.8
20260505020010 53 0 0.0 0.0 0.00 0.13 0.00 96 1011.7
20260505015008 53 0 0.0 0.0 0.00 0.13 0.00 96 1011.7
20260505014009 53 0 0.0 0.0 0.00 0.13 0.00 96 1011.8
20260505013009 53 0 0.0 0.0 0.00 0.13 0.00 95 1011.8
20260505012009 53 0 0.0 0.0 0.00 0.13 0.00 95 1011.9
20260505011010 53 0 0.0 0.0 0.00 0.13 0.00 95 1011.9
20260505010009 53 0 0.0 0.0 0.00 0.13 0.00 95 1012.1
20260505005009 53 0 0.0 0.0 0.00 0.13 0.00 95 1012.0
20260505004010 53 0 0.0 0.0 0.00 0.13 0.00 94 1012.1
20260505003009 53 0 0.0 0.0 0.00 0.13 0.00 94 1012.2
20260505001009 53 0 0.0 0.0 0.00 0.13 0.00 94 1012.6
20260505000010 53 0 0.0 0.0 0.00 0.13 0.00 94 1012.6
20260504234012 53 0 0.0 0.0 0.00 0.13 0.00 94 1012.7
20260504233013 52 0 0.0 0.0 0.00 0.13 0.00 94 1012.8
20260504232013 52 0 0.0 0.0 0.00 0.13 0.00 94 1012.8
20260504231013 52 0 0.0 0.0 0.00 0.13 0.00 94 1012.9
20260504230012 52 0 0.0 0.0 0.00 0.13 0.00 94 1013.1
20260504225012 52 0 0.0 0.0 0.00 0.13 0.00 94 1013.1
20260504224012 52 0 0.0 0.0 0.00 0.13 0.00 94 1013.1
20260504223012 52 0 0.0 0.0 0.00 0.13 0.00 93 1013.2
20260504222013 52 0 0.0 0.0 0.00 0.13 0.00 93 1013.3
20260504221012 52 0 0.0 0.0 0.00 0.13 0.00 93 1013.3
20260504220016 52 0 0.0 0.0 0.00 0.13 0.00 93 1013.4
20260504214013 52 0 0.0 0.0 0.00 0.13 0.13 92 1013.6
20260504213021 52 0 0.0 0.0 0.00 0.13 0.13 92 1013.7
20260504212045 52 0 0.0 0.0 0.00 0.13 0.13 92 1013.7
20260504211014 52 0 0.0 0.0 0.00 0.13 0.13 92 1013.8
20260504205014 52 0 0.0 0.0 0.00 0.13 0.13 92 1013.9
20260504204014 52 0 0.0 0.0 0.00 0.13 0.13 92 1013.9
20260504203014 52 0 0.0 0.0 0.00 0.14 0.13 92 1013.9
20260504202016 52 0 0.0 0.0 0.00 0.14 0.13 92 1013.9
20260504201014 52 0 0.0 0.0 0.00 0.14 0.13 92 1013.9
20260504200023 53 0 0.0 0.0 0.00 0.14 0.13 93 1013.8
20260504194014 53 0 0.0 0.0 0.00 0.16 0.13 93 1013.6
20260504193013 54 0 0.0 0.0 0.00 0.16 0.13 93 1013.5
20260504192013 54 0 0.0 0.0 0.00 0.17 0.13 92 1013.3
20260504190013 55 0 0.0 0.0 0.00 0.17 0.13 91 1013.3
20260504185013 55 0 0.0 0.0 0.00 0.17 0.13 91 1013.2
20260504183010 56 0 0.0 0.0 0.00 0.17 0.13 90 1013.0
20260504181012 57 0 0.0 0.0 0.00 0.17 0.13 89 1013.0
20260504180013 57 0 0.0 0.0 0.00 0.17 0.13 89 1013.0
20260504175012 57 0 0.0 0.0 0.00 0.17 0.13 88 1013.1
20260504174013 57 0 0.0 0.0 0.00 0.17 0.13 88 1013.1
20260504172013 57 0 0.0 0.0 0.00 0.17 0.13 89 1013.1
20260504171012 57 0 0.0 0.0 0.00 0.17 0.13 89 1013.2